Fremont, MI

6:47 PM EDT on October 19, 2019 (GMT -0400)
Fremont

Weather History for KFFX - May, 2019

Change the Weather History Date:

Tuesday, May 28, 2019

  Actual Average (KMKG) Record (KMKG)
Temperature  
Mean Temperature 57 °F -  
Max Temperature 60 °F 71 °F 95 °F (2018)
Min Temperature 54 °F 49 °F 31 °F (1992)
Degree Days  
Heating Degree Days 8    
Growing Degree Days 7 (Base 50)    
Moisture  
Dew Point 55 °F    
Average Humidity 94    
Maximum Humidity 100    
Minimum Humidity 78    
Precipitation  
Precipitation 0.00 in - - ()
Sea Level Pressure  
Sea Level Pressure 29.71 in    
Wind  
Wind Speed 5 mph ()    
Max Wind Speed 10 mph    
Max Gust Speed 17 mph    
Visibility 7.0 miles    
Events Rain    
Averages and records for this station are not official NWS values.
T = Trace of Precipitation, MM = Missing Value Source: Averaged Metar Reports

Daily Weather History Graph

Daily Weather History Graph

Search for Another Location

Airport or City:

Astronomy

May. 28, 2019 Rise Set
Actual Time 6:08 AM EDT 9:14 PM EDT
Civil Twilight 5:34 AM EDT 9:48 PM EDT
Nautical Twilight 4:50 AM EDT 10:33 PM EDT
Astronomical Twilight 3:57 AM EDT 11:26 PM EDT
Moon 3:33 AM EDT (5/28) 3:11 PM EDT (5/28)
Length of Visible Light 16h 14m
Length of Day
15h 05m
Waning Crescent, 32% of the Moon is Illuminated
May 28
Waning Crescent
Jun 3
New
Jun 10
First Quarter
Jun 17
Full
Jun 25
Last Quarter

Hourly Weather History & Observations

Time (EDT) Temp. Dew Point Humidity Pressure Visibility Wind Dir Wind Speed Gust Speed Precip Events Conditions
12:15 AM 56.5 °F 54.7 °F 94% 29.70 in 10.0 mi ESE 6.9 mph - N/A   Overcast
12:35 AM 56.8 °F 54.3 °F 91% 29.69 in 10.0 mi ESE 9.2 mph - N/A   Overcast
12:55 AM 57.2 °F 52.9 °F 85% 29.67 in 10.0 mi ESE 8.1 mph - N/A   Overcast
12:56 AM 57.2 °F 52.9 °F 85% 29.67 in 10.0 mi ESE 8.1 mph - N/A   Overcast
1:15 AM 57.2 °F 53.1 °F 86% 29.66 in 10.0 mi ESE 8.1 mph - N/A   Overcast
1:35 AM 57.4 °F 53.4 °F 87% 29.66 in 10.0 mi SE 5.8 mph 17.3 mph N/A   Overcast
1:55 AM 57.2 °F 54.0 °F 89% 29.65 in 10.0 mi ESE 9.2 mph - N/A   Overcast
1:56 AM 57.2 °F 54.0 °F 89% 29.65 in 10.0 mi ESE 10.4 mph 16.1 mph N/A   Overcast
2:15 AM 56.8 °F 54.7 °F 92% 29.63 in 7.0 mi ESE 8.1 mph - N/A Rain Light Rain
2:16 AM 56.7 °F 54.7 °F 93% 29.63 in 7.0 mi ESE 8.1 mph - N/A Rain Light Rain
2:35 AM 56.5 °F 54.9 °F 94% 29.67 in 5.0 mi WNW 5.8 mph - N/A Rain Heavy Rain
2:36 AM 56.5 °F 54.9 °F 94% 29.67 in 4.0 mi WNW 8.1 mph - N/A Rain Heavy Rain
2:55 AM 55.8 °F 55.4 °F 99% 29.64 in 7.0 mi East 5.8 mph - N/A Rain Heavy Rain
2:56 AM 55.8 °F 55.4 °F 99% 29.64 in 7.0 mi East 4.6 mph - N/A Rain Rain
3:15 AM 55.6 °F 55.4 °F 99% 29.64 in 5.0 mi East 3.5 mph - N/A Rain Rain
3:35 AM 55.6 °F 55.4 °F 99% 29.63 in 7.0 mi ESE 5.8 mph - N/A Rain Rain
3:36 AM 55.6 °F 55.4 °F 99% 29.63 in 7.0 mi ESE 5.8 mph - N/A Rain Rain
3:56 AM 55.8 °F 55.8 °F 100% 29.62 in 10.0 mi ESE 6.9 mph - N/A   Light Drizzle
4:15 AM 55.9 °F 55.9 °F 100% 29.62 in 10.0 mi East 3.5 mph - N/A   Overcast
4:35 AM 56.3 °F 56.3 °F 100% 29.62 in 10.0 mi East 4.6 mph - N/A   Overcast
4:55 AM 55.9 °F 55.9 °F 100% 29.63 in 5.0 mi East 5.8 mph - N/A   Overcast
4:56 AM 55.9 °F 55.9 °F 100% 29.63 in 5.0 mi East 5.8 mph - N/A   Overcast
5:15 AM 55.8 °F 55.8 °F 100% 29.63 in 4.0 mi East 6.9 mph - N/A   Overcast
5:16 AM 55.8 °F 55.8 °F 100% 29.63 in 4.0 mi East 8.1 mph - N/A   Overcast
5:35 AM 55.6 °F 55.6 °F 100% 29.63 in 2.5 mi East 6.9 mph - N/A   Overcast
5:55 AM 55.4 °F 55.4 °F 100% 29.63 in 2.0 mi East 4.6 mph - N/A   Overcast
6:15 AM 55.4 °F 55.4 °F 100% 29.63 in 2.0 mi East 5.8 mph - N/A   Overcast
6:16 AM 55.4 °F 55.4 °F 100% 29.63 in 2.5 mi East 5.8 mph - N/A   Overcast
6:35 AM 55.4 °F 55.4 °F 100% 29.64 in 2.0 mi East 6.9 mph - N/A   Overcast
6:55 AM 55.4 °F 55.4 °F 100% 29.64 in 1.8 mi ESE 5.8 mph - N/A   Overcast
7:15 AM 55.2 °F 55.2 °F 100% 29.64 in 1.8 mi East 5.8 mph - N/A   Overcast
7:16 AM 55.0 °F 55.0 °F 100% 29.64 in 1.5 mi East 5.8 mph - N/A   Overcast
7:35 AM 55.4 °F 55.4 °F 100% 29.65 in 1.2 mi ESE 5.8 mph - N/A   Overcast
7:55 AM 55.4 °F 55.4 °F 100% 29.65 in 1.0 mi East 4.6 mph - N/A   Overcast
8:15 AM 55.6 °F 55.6 °F 100% 29.65 in 1.2 mi East 5.8 mph - N/A   Overcast
8:35 AM 55.6 °F 55.6 °F 100% 29.65 in 1.5 mi East 6.9 mph - N/A   Overcast
8:36 AM 55.6 °F 55.6 °F 100% 29.65 in 1.5 mi East 6.9 mph - N/A   Overcast
8:55 AM 55.6 °F 55.6 °F 100% 29.65 in 1.2 mi East 4.6 mph - N/A   Overcast
9:15 AM 55.8 °F 55.8 °F 100% 29.67 in 1.5 mi East 6.9 mph - N/A   Overcast
9:35 AM 55.6 °F 55.6 °F 100% 29.68 in 1.2 mi East 4.6 mph - N/A   Overcast
9:36 AM 55.6 °F 55.6 °F 100% 29.68 in 1.2 mi East 5.8 mph - N/A Rain Rain
9:55 AM 54.7 °F 54.7 °F 100% 29.68 in 2.0 mi ENE 8.1 mph - N/A   Drizzle
9:56 AM 54.7 °F 54.7 °F 100% 29.68 in 1.8 mi ENE 8.1 mph - N/A   Drizzle
10:15 AM 54.7 °F 54.7 °F 100% 29.70 in 2.0 mi ENE 5.8 mph - N/A   Light Drizzle
10:16 AM 54.7 °F 54.7 °F 100% 29.70 in 2.0 mi ENE 6.9 mph - N/A   Light Drizzle
10:35 AM 54.5 °F 54.5 °F 100% 29.71 in 3.0 mi East 5.8 mph - N/A   Light Drizzle
10:55 AM 54.5 °F 54.5 °F 100% 29.72 in 7.0 mi East 5.8 mph - N/A   Overcast
10:56 AM 54.5 °F 54.5 °F 100% 29.72 in 7.0 mi East 5.8 mph - N/A   Overcast
11:15 AM 54.7 °F 54.7 °F 100% 29.73 in 4.0 mi NE 5.8 mph - N/A   Overcast
11:16 AM 54.5 °F 54.5 °F 100% 29.73 in 4.0 mi NE 5.8 mph - N/A   Overcast
11:35 AM 54.7 °F 54.7 °F 100% 29.73 in 10.0 mi NE 6.9 mph - N/A   Overcast
11:55 AM 54.5 °F 54.5 °F 100% 29.73 in 10.0 mi NNE 6.9 mph - N/A   Overcast
11:56 AM 54.5 °F 54.5 °F 100% 29.73 in 10.0 mi NE 4.6 mph - N/A   Overcast
12:15 PM 55.0 °F 54.7 °F 99% 29.74 in 7.0 mi NE 6.9 mph - N/A   Overcast
12:16 PM 55.0 °F 54.7 °F 99% 29.74 in 7.0 mi NE 6.9 mph - N/A   Overcast
12:35 PM 55.0 °F 54.5 °F 98% 29.75 in 10.0 mi ENE 5.8 mph - N/A   Overcast
12:55 PM 55.6 °F 55.0 °F 98% 29.75 in 10.0 mi ENE 5.8 mph - N/A   Overcast
1:15 PM 55.8 °F 55.4 °F 99% 29.74 in 3.0 mi ENE 6.9 mph - N/A   Overcast
1:16 PM 55.8 °F 55.4 °F 99% 29.74 in 3.0 mi ENE 6.9 mph - N/A   Overcast
1:35 PM 56.3 °F 55.8 °F 98% 29.75 in 3.0 mi ENE 6.9 mph - N/A   Overcast
1:55 PM 56.3 °F 55.8 °F 98% 29.77 in 2.5 mi East 4.6 mph - N/A   Overcast
2:15 PM 56.3 °F 56.1 °F 99% 29.77 in 2.5 mi East 4.6 mph - N/A   Overcast
2:16 PM 56.3 °F 56.1 °F 99% 29.77 in 2.5 mi East 4.6 mph - N/A   Overcast
2:35 PM 56.5 °F 55.9 °F 98% 29.78 in 3.0 mi East 3.5 mph - N/A   Overcast
2:55 PM 56.8 °F 55.9 °F 97% 29.77 in 10.0 mi NE 4.6 mph - N/A   Overcast
2:56 PM 56.8 °F 55.9 °F 97% 29.77 in 10.0 mi ENE 4.6 mph - N/A   Overcast
3:15 PM 57.7 °F 56.3 °F 95% 29.74 in 10.0 mi East 5.8 mph - N/A   Overcast
3:35 PM 58.3 °F 56.1 °F 93% 29.78 in 10.0 mi North 3.5 mph - N/A   Overcast
3:55 PM 58.8 °F 55.2 °F 88% 29.79 in 10.0 mi Calm Calm - N/A   Overcast
3:56 PM 58.8 °F 54.9 °F 87% 29.79 in 10.0 mi Calm Calm - N/A   Overcast
4:15 PM 58.6 °F 55.0 °F 88% 29.78 in 10.0 mi Calm Calm - N/A   Overcast
4:35 PM 59.0 °F 55.0 °F 87% 29.77 in 10.0 mi ENE 3.5 mph - N/A   Overcast
4:55 PM 58.8 °F 55.4 °F 88% 29.77 in 10.0 mi NNE 3.5 mph - N/A   Overcast
4:56 PM 58.8 °F 55.2 °F 88% 29.77 in 10.0 mi Calm Calm - N/A   Overcast
5:15 PM 59.5 °F 55.8 °F 87% 29.74 in 10.0 mi NE 6.9 mph - N/A   Overcast
5:16 PM 59.7 °F 55.6 °F 86% 29.74 in 10.0 mi NE 6.9 mph - N/A   Overcast
5:35 PM 60.3 °F 55.2 °F 83% 29.73 in 10.0 mi ENE 8.1 mph - N/A   Overcast
5:36 PM 60.3 °F 54.9 °F 82% 29.73 in 10.0 mi ENE 9.2 mph - N/A   Overcast
5:55 PM 59.9 °F 54.7 °F 83% 29.74 in 10.0 mi ENE 4.6 mph - N/A   Overcast
6:15 PM 59.4 °F 54.3 °F 83% 29.73 in 10.0 mi ENE 5.8 mph - N/A   Overcast
6:16 PM 59.4 °F 54.5 °F 84% 29.73 in 10.0 mi ENE 4.6 mph - N/A   Overcast
6:35 PM 59.7 °F 55.0 °F 84% 29.73 in 10.0 mi East 4.6 mph - N/A   Overcast
6:55 PM 59.9 °F 54.5 °F 82% 29.75 in 10.0 mi East 3.5 mph - N/A   Overcast
6:56 PM 59.9 °F 54.5 °F 82% 29.75 in 10.0 mi East 4.6 mph - N/A   Overcast
7:15 PM 60.1 °F 54.1 °F 81% 29.75 in 10.0 mi ESE 5.8 mph - N/A   Overcast
7:35 PM 60.8 °F 53.8 °F 78% 29.75 in 10.0 mi SE 3.5 mph - N/A   Overcast
7:36 PM 60.8 °F 53.8 °F 78% 29.75 in 10.0 mi ESE 3.5 mph - N/A   Overcast
7:55 PM 60.4 °F 54.1 °F 80% 29.75 in 10.0 mi East 4.6 mph - N/A   Overcast
8:15 PM 60.1 °F 54.1 °F 81% 29.75 in 10.0 mi Calm Calm - N/A   Overcast
8:35 PM 59.9 °F 56.1 °F 87% 29.75 in 10.0 mi Calm Calm - N/A   Overcast
8:36 PM 59.9 °F 56.1 °F 87% 29.75 in 10.0 mi Calm Calm - N/A   Overcast
8:55 PM 59.9 °F 54.9 °F 83% 29.77 in 10.0 mi Calm Calm - N/A   Overcast
9:15 PM 60.1 °F 57.0 °F 90% 29.78 in 10.0 mi Calm Calm - N/A   Overcast
9:35 PM 59.0 °F 57.9 °F 96% 29.79 in 10.0 mi Calm Calm - N/A   Overcast
9:36 PM 59.0 °F 58.1 °F 97% 29.79 in 10.0 mi Calm Calm - N/A   Overcast
9:55 PM 58.6 °F 57.4 °F 96% 29.79 in 10.0 mi Calm Calm - N/A   Overcast
9:56 PM 58.6 °F 57.6 °F 96% 29.78 in 10.0 mi Calm Calm - N/A   Overcast
10:15 PM 58.8 °F 57.7 °F 96% 29.78 in 10.0 mi Calm Calm - N/A   Overcast
10:16 PM 59.0 °F 57.7 °F 96% 29.78 in 10.0 mi Calm Calm - N/A   Overcast
10:35 PM 58.6 °F 58.1 °F 98% 29.79 in 10.0 mi Calm Calm - N/A   Overcast
10:55 PM 58.6 °F 57.7 °F 97% 29.79 in 10.0 mi Calm Calm - N/A   Overcast
11:15 PM 58.6 °F 57.7 °F 97% 29.80 in 10.0 mi Calm Calm - N/A   Overcast
11:16 PM 58.5 °F 57.6 °F 97% 29.80 in 10.0 mi Calm Calm - N/A   Overcast
11:35 PM 58.1 °F 57.4 °F 97% 29.79 in 10.0 mi Calm Calm - N/A   Overcast
11:55 PM 58.3 °F 57.2 °F 96% 29.77 in 10.0 mi Calm Calm - N/A   Overcast